• In Czech Republic
  • List of Countries
  • For 7 days
  • Water Temperature
  • Satellite Maps
  • Weather Map
  • Weather Widgets
  • user-avatar
    Login

    Hourly Weather Maldegem

    Today, 12 December, Tuesday

    Time Temperature Precipitation Wind Pressure Humidity
    00:00 0°C° 0 mm 7 mps 744 mmHg 77%
    01:00 +1°C° 0.2 mm 6 mps 746 mmHg 78%
    02:00 +1°C° 0.2 mm 6 mps 747 mmHg 79%
    03:00 +1°C° 0.2 mm 5 mps 748 mmHg 80%
    04:00 +1°C° 0.4 mm 5 mps 749 mmHg 82%
    05:00 +1°C° 0.4 mm 5 mps 750 mmHg 83%
    06:00 +1°C° 0 mm 5 mps 752 mmHg 85%
    07:00 +1°C° 0.3 mm 5 mps 752 mmHg 85%
    08:00 +1°C° 0.3 mm 5 mps 753 mmHg 85%
    09:00 +1°C° 0.3 mm 4 mps 754 mmHg 84%
    10:00 +2°C° 0.3 mm 5 mps 755 mmHg 82%
    11:00 +2°C° 0.3 mm 5 mps 756 mmHg 79%
    12:00 +3°C° 0.3 mm 6 mps 756 mmHg 76%
    13:00 +2°C° 0.2 mm 5 mps 757 mmHg 78%
    14:00 +2°C° 0.2 mm 5 mps 757 mmHg 80%
    15:00 +2°C° 0.2 mm 5 mps 757 mmHg 82%
    16:00 +1°C° 0 mm 5 mps 758 mmHg 84%
    17:00 +1°C° 0 mm 5 mps 758 mmHg 85%
    18:00 0°C° 0 mm 5 mps 759 mmHg 87%
    19:00 0°C° 0 mm 5 mps 759 mmHg 87%
    20:00 0°C° 0 mm 5 mps 759 mmHg 87%
    21:00 -1°C° 0 mm 6 mps 759 mmHg 87%
    22:00 -1°C° 0 mm 6 mps 759 mmHg 86%
    23:00 -1°C° 0 mm 7 mps 759 mmHg 85%

    Tomorrow, 13 December, Wednesday

    Time Temperature Precipitation Wind Pressure Humidity
    00:00 -1°C° 0 mm 8 mps 758 mmHg 85%
    01:00 0°C° 0 mm 8 mps 757 mmHg 85%
    02:00 0°C° 0 mm 9 mps 757 mmHg 86%
    03:00 0°C° 0 mm 9 mps 756 mmHg 86%
    04:00 0°C° 0.7 mm 10 mps 755 mmHg 86%
    05:00 +1°C° 0.7 mm 11 mps 754 mmHg 85%
    06:00 0°C° 0.7 mm 12 mps 753 mmHg 84%
    07:00 +2°C° 0.3 mm 11 mps 753 mmHg 85%
    08:00 +3°C° 0.3 mm 10 mps 753 mmHg 85%
    09:00 +3°C° 0.3 mm 10 mps 752 mmHg 86%
    10:00 +3°C° 0.3 mm 9 mps 752 mmHg 87%
    11:00 +5°C° 0.3 mm 8 mps 751 mmHg 87%
    12:00 +5°C° 0.3 mm 7 mps 751 mmHg 88%
    13:00 +5°C° 0.4 mm 7 mps 750 mmHg 89%
    14:00 +5°C° 0.4 mm 8 mps 749 mmHg 89%
    15:00 +5°C° 0.4 mm 8 mps 748 mmHg 90%
    16:00 +6°C° 1.3 mm 9 mps 747 mmHg 89%
    17:00 +6°C° 1.3 mm 11 mps 746 mmHg 88%
    18:00 +5°C° 1.3 mm 13 mps 745 mmHg 87%
    19:00 +5°C° 0.7 mm 12 mps 745 mmHg 80%
    20:00 +4°C° 0.7 mm 11 mps 745 mmHg 73%
    21:00 +3°C° 0.7 mm 10 mps 746 mmHg 65%
    22:00 +3°C° 0.7 mm 11 mps 746 mmHg 66%
    23:00 +3°C° 0.7 mm 13 mps 746 mmHg 68%

    Day after tomorrow, 14 December, Thursday

    Time Temperature Precipitation Wind Pressure Humidity
    00:00 +3°C° 0.7 mm 14 mps 745 mmHg 69%
    01:00 +1°C° 0.1 mm 13 mps 746 mmHg 66%
    02:00 +1°C° 0.1 mm 13 mps 747 mmHg 64%
    03:00 0°C° 0.1 mm 12 mps 747 mmHg 61%
    04:00 +1°C° 0.1 mm 11 mps 747 mmHg 63%
    05:00 +1°C° 0.1 mm 11 mps 747 mmHg 64%
    06:00 +1°C° 0.1 mm 10 mps 748 mmHg 66%
    07:00 +1°C° 0.1 mm 9 mps 747 mmHg 68%
    08:00 +2°C° 0.1 mm 9 mps 747 mmHg 69%
    09:00 +2°C° 0.1 mm 9 mps 747 mmHg 71%
    10:00 +2°C° 0.2 mm 8 mps 746 mmHg 75%
    11:00 +2°C° 0.2 mm 8 mps 745 mmHg 78%
    12:00 +4°C° 0.2 mm 7 mps 744 mmHg 81%
    13:00 +3°C° 1.2 mm 6 mps 743 mmHg 83%
    14:00 +3°C° 1.2 mm 5 mps 743 mmHg 84%
    15:00 +4°C° 1.2 mm 4 mps 742 mmHg 85%
    16:00 +3°C° 0.7 mm 5 mps 742 mmHg 83%
    17:00 +3°C° 0.7 mm 6 mps 742 mmHg 80%
    18:00 +2°C° 0.7 mm 7 mps 743 mmHg 78%
    19:00 +2°C° 0.1 mm 7 mps 743 mmHg 77%
    20:00 +2°C° 0.1 mm 6 mps 744 mmHg 75%
    21:00 +1°C° 0.1 mm 6 mps 744 mmHg 74%
    22:00 +1°C° 0 mm 5 mps 744 mmHg 77%
    23:00 +1°C° 0 mm 5 mps 744 mmHg 79%

    15 December, Friday

    Time Temperature Precipitation Wind Pressure Humidity
    00:00 0°C° 0 mm 5 mps 744 mmHg 82%
    01:00 0°C° 0 mm 5 mps 744 mmHg 84%
    02:00 0°C° 0 mm 4 mps 744 mmHg 87%
    03:00 0°C° 0 mm 4 mps 744 mmHg 89%
    04:00 0°C° 0.2 mm 4 mps 745 mmHg 89%
    05:00 +1°C° 0.2 mm 4 mps 745 mmHg 90%
    06:00 +1°C° 0.2 mm 4 mps 745 mmHg 90%
    07:00 +1°C° 0.5 mm 4 mps 745 mmHg 90%
    08:00 +2°C° 0.5 mm 3 mps 746 mmHg 91%
    09:00 +3°C° 0.5 mm 3 mps 746 mmHg 91%
    10:00 +3°C° 0.1 mm 4 mps 747 mmHg 87%
    11:00 +4°C° 0.1 mm 4 mps 747 mmHg 83%
    12:00 +5°C° 0.1 mm 4 mps 748 mmHg 79%
    13:00 +4°C° 0 mm 4 mps 748 mmHg 79%
    14:00 +4°C° 0 mm 3 mps 749 mmHg 80%
    15:00 +4°C° 0 mm 3 mps 749 mmHg 80%
    16:00 +3°C° 0 mm 3 mps 750 mmHg 81%
    17:00 +3°C° 0 mm 3 mps 751 mmHg 82%
    18:00 +2°C° 0 mm 3 mps 752 mmHg 83%
    19:00 +2°C° 0 mm 3 mps 752 mmHg 84%
    20:00 +2°C° 0 mm 3 mps 753 mmHg 84%
    21:00 +2°C° 0 mm 3 mps 754 mmHg 85%
    22:00 +2°C° 0 mm 3 mps 755 mmHg 85%
    23:00 +1°C° 0 mm 4 mps 755 mmHg 85%

    16 December, Saturday

    Time Temperature Precipitation Wind Pressure Humidity
    00:00 +1°C° 0 mm 4 mps 756 mmHg 85%
    01:00 +1°C° 0 mm 4 mps 756 mmHg 86%
    02:00 +1°C° 0 mm 5 mps 756 mmHg 86%
    03:00 +1°C° 0 mm 5 mps 757 mmHg 87%
    04:00 +1°C° 0.1 mm 5 mps 757 mmHg 87%
    05:00 +1°C° 0.1 mm 6 mps 758 mmHg 88%
    06:00 +1°C° 0.1 mm 6 mps 758 mmHg 88%
    07:00 +1°C° 0.1 mm 6 mps 759 mmHg 86%
    08:00 +2°C° 0.1 mm 6 mps 759 mmHg 84%
    09:00 +2°C° 0.1 mm 6 mps 760 mmHg 82%
    10:00 +2°C° 0.1 mm 6 mps 760 mmHg 77%
    11:00 +3°C° 0.1 mm 6 mps 760 mmHg 73%
    12:00 +3°C° 0.1 mm 7 mps 760 mmHg 69%
    13:00 +3°C° 0.2 mm 6 mps 761 mmHg 72%
    14:00 +3°C° 0.2 mm 6 mps 761 mmHg 74%
    15:00 +2°C° 0.2 mm 6 mps 761 mmHg 77%
    16:00 +2°C° 0.2 mm 6 mps 762 mmHg 78%
    17:00 +2°C° 0.2 mm 6 mps 762 mmHg 79%
    18:00 +2°C° 0.2 mm 6 mps 763 mmHg 80%
    19:00 +2°C° 0.1 mm 6 mps 764 mmHg 81%
    20:00 +2°C° 0.1 mm 5 mps 764 mmHg 81%
    21:00 +1°C° 0.1 mm 5 mps 765 mmHg 82%
    22:00 +1°C° 0.1 mm 5 mps 765 mmHg 82%
    23:00 +1°C° 0.1 mm 5 mps 765 mmHg 82%

    17 December, Sunday

    Time Temperature Precipitation Wind Pressure Humidity
    00:00 +1°C° 0.1 mm 5 mps 765 mmHg 82%
    01:00 +1°C° 0.1 mm 4 mps 766 mmHg 82%
    02:00 0°C° 0.1 mm 4 mps 766 mmHg 82%
    03:00 0°C° 0.1 mm 4 mps 766 mmHg 82%
    04:00 +1°C° 0.1 mm 3 mps 766 mmHg 82%
    05:00 +1°C° 0.1 mm 3 mps 766 mmHg 82%
    06:00 0°C° 0.1 mm 3 mps 767 mmHg 82%
    07:00 +1°C° 0 mm 3 mps 767 mmHg 82%
    08:00 +1°C° 0 mm 3 mps 768 mmHg 81%
    09:00 +2°C° 0 mm 2 mps 768 mmHg 81%
    10:00 +3°C° 0 mm 2 mps 768 mmHg 79%
    11:00 +3°C° 0 mm 3 mps 768 mmHg 76%
    12:00 +4°C° 0 mm 3 mps 768 mmHg 74%
    13:00 +4°C° 0 mm 2 mps 768 mmHg 76%
    14:00 +4°C° 0 mm 2 mps 768 mmHg 79%
    15:00 +3°C° 0 mm 2 mps 769 mmHg 81%
    16:00 +3°C° 0 mm 2 mps 769 mmHg 84%
    17:00 +2°C° 0 mm 2 mps 769 mmHg 86%
    18:00 0°C° 0 mm 3 mps 770 mmHg 89%
    19:00 0°C° 0 mm 3 mps 770 mmHg 90%
    20:00 0°C° 0 mm 3 mps 770 mmHg 92%
    21:00 0°C° 0 mm 3 mps 770 mmHg 93%
    22:00 -1°C° 0 mm 4 mps 770 mmHg 93%
    23:00 -1°C° 0 mm 4 mps 770 mmHg 93%
    Show more